[[{"header":{"parameterUnit":"m.s-1","parameterCategory":1,"la1":30.2991,"la2":30.254,"lo1":-89.0895,"lo2":-89.0444,"dy":0.0017,"dx":0.0017,"nx":28,"ny":28,"refTime":"2024-06-19T03:00:00:Z","depth":0,"parameterNumber":2,"parameterNumberName":"U-component_of_WINDS"},"data":[0,0,0,0,0,0,0,0,0,0,0,0,0,0,0,0,0,0,0,0,0,0,0,0,0,0,0,0,0,0,0,0,0,0,0,0,0,0,0,0,0,0,0,0,0,0,0,0,0,0,0,0,0,0,0,0,0,0,-8.5808,-8.5808,0,-8.5775,-8.5775,-8.5775,-8.5541,-8.5536,-8.553,-8.5525,-8.5493,-8.5498,-8.5502,0,0,0,0,0,0,0,0,0,0,0,0,0,-8.5671,-8.5674,-8.5808,-8.5808,-8.5807,-8.5775,-8.5775,-8.5774,-8.5542,-8.5536,-8.5529,-8.5522,-8.5492,-8.5497,-8.5502,0,0,0,0,0,0,0,0,0,0,0,0,0,-8.5694,-8.5676,-8.5808,-8.5688,-8.5676,-8.5775,-8.5775,-8.5774,-8.5544,-8.5535,-8.5527,-8.5519,-8.549,-8.5497,-8.5503,-8.5716,0,0,-8.5524,-8.5527,0,0,0,0,0,0,0,0,-8.5693,-8.5699,-8.5706,-8.5696,-8.5684,-8.5654,-8.5715,-8.5755,-8.5546,-8.5594,-8.5525,-8.5515,-8.5554,-8.5555,-8.5567,-8.5715,-8.5713,-8.5524,-8.5528,-8.5531,-8.5533,0,0,0,0,0,0,0,-8.5691,-8.5699,-8.5795,-8.5706,-8.5693,-8.5635,-8.5629,-8.5721,-8.5623,-8.559,-8.5572,-8.5572,-8.5546,-8.5562,-8.5565,-8.5713,-8.5524,-8.553,-8.5534,-8.5537,-8.6031,-8.6039,0,0,0,0,0,0,-8.5706,-8.5699,-8.5796,-8.5794,-8.5667,-8.5645,-8.5638,-8.5672,-8.5621,-8.5605,-8.5579,-8.5561,-8.5554,-8.5557,-8.5563,-8.5806,-8.5531,-8.5538,-8.5541,-8.6022,-8.6033,-8.6042,0,0,0,0,0,0,-8.5704,-8.5717,-8.5797,-8.5742,-8.5748,-8.5656,-8.5697,-8.5676,-8.5691,-8.5613,-8.5594,-8.5613,-8.5548,-8.5553,-8.5679,-8.5801,-8.5541,-8.5547,-8.6011,-8.6025,-8.6037,-8.6296,0,0,0,0,0,0,-8.5701,-8.5718,-8.5798,-8.5746,-8.5752,-8.5914,-8.5704,-8.5681,-8.5703,-8.5679,-8.564,-8.5625,-8.5541,-8.567,-8.5686,-8.5806,-8.5552,-8.5999,-8.6017,-8.6033,-8.6276,-8.6317,-8.6351,0,0,0,0,0,-8.5697,-8.5873,-8.5803,-8.5816,-8.5849,-8.5922,-8.5925,-8.5825,-8.5714,-8.5793,-8.5743,-8.5626,-8.5787,-8.5685,-8.57,-8.5825,-8.5991,-8.6012,-8.6032,-8.6259,-8.6309,-8.635,0,0,0,0,0,0,-8.5942,-8.5864,-8.5785,-8.5949,-8.5944,-8.5882,-8.5979,-8.5881,-8.5908,-8.5884,-8.576,-8.5753,-8.5897,-8.5874,-8.5762,-8.6027,-8.5869,-8.5893,-8.6036,-8.6083,-8.612,-8.6121,-8.5558,0,0,0,0,0,-8.6015,-8.608,-8.6008,-8.616,-8.6161,-8.6072,-8.6099,-8.6022,-8.6012,-8.6009,-8.5968,-8.5963,-8.6011,-8.6046,-8.6087,-8.6273,-8.626,-8.6366,-8.6404,-8.6435,-8.6457,-8.6551,-8.6596,-8.6109,-8.6109,-8.6109,0,0,-8.6167,-8.6132,-8.618,-8.6208,-8.6195,-8.6264,-8.6071,-8.6154,-8.6204,-8.6022,-8.6136,-8.6107,-8.6093,-8.6249,-8.6316,-8.6234,-8.6589,-8.6461,-8.6487,-8.6491,-8.6576,-8.6623,-8.6664,-8.6123,-8.6121,-8.6119,0,0,-8.6477,-8.6459,-8.6581,-8.6572,-8.6554,-8.6493,-8.6523,-8.6477,-8.6449,-8.6563,-8.6427,-8.6486,-8.6574,-8.6568,-8.6578,-8.6888,-8.678,-8.6905,-8.7101,-8.7194,-8.7232,-8.7265,-8.7373,-8.7413,-8.6927,-8.6928,-8.6928,0,-8.6667,-8.6766,-8.6656,-8.6747,-8.6762,-8.6601,-8.6723,-8.672,-8.6718,-8.6732,-8.6642,-8.6747,-8.6727,-8.6877,-8.6953,-8.6967,-8.6996,-8.6907,-8.7235,-8.7268,-8.7297,-8.7398,-8.7439,-8.6943,-8.6941,-8.694,-8.6938,0,-8.6999,-8.707,-8.7171,-8.7171,-8.7198,-8.7306,-8.7212,-8.7253,-8.7175,-8.7124,-8.7241,-8.7212,-8.7243,-8.7274,-8.7199,-8.7415,-8.7364,-8.7258,-8.7095,-8.736,-8.7453,-8.7491,-8.6964,-8.6959,-8.6954,-8.6951,0,0,-8.746,-8.7398,-8.7437,-8.7433,-8.7403,-8.7455,-8.7556,-8.7585,-8.7621,-8.7626,-8.7705,-8.7784,-8.7683,-8.7694,-8.7618,-8.77,-8.7944,-8.7582,-8.7579,-8.7647,-8.8177,-8.8255,-8.8302,-8.7875,-8.7882,-8.7887,-8.8177,0,-8.7755,-8.7919,-8.7824,-8.8002,-8.8065,-8.7913,-8.8,-8.7991,-8.7947,-8.7994,-8.7946,-8.8002,-8.7867,-8.7872,-8.7947,-8.7899,-8.8048,-8.7877,-8.7945,-8.7949,-8.7949,-8.835,-8.8433,-8.8707,-8.8213,-8.8219,-8.8223,0,-8.812,-8.8138,-8.8323,-8.8278,-8.8301,-8.838,-8.8398,-8.8447,-8.8433,-8.8395,-8.8408,-8.8311,-8.8406,-8.8249,-8.8377,-8.8263,-8.8286,-8.8267,-8.8275,-8.8274,-8.81,-8.8357,-8.8793,-8.8833,-8.828,-8.8275,-8.8271,0,-8.8433,-8.8504,-8.8623,-8.8626,-8.8578,-8.8637,-8.862,-8.8598,-8.8621,-8.8639,-8.8652,-8.8682,-8.8697,-8.8722,-8.8636,-8.853,-8.8775,-8.8611,-8.8745,-8.8747,-8.8799,-8.8797,-8.9242,-8.8822,-8.8822,-8.8821,-8.882,0,-8.8769,-8.8887,-8.8762,-8.8835,-8.8963,-8.8853,-8.8983,-8.895,-8.8932,-8.8995,-8.8868,-8.8931,-8.8815,-8.8867,-8.8801,-8.8915,-8.8924,-8.8895,-8.8875,-8.8904,-8.8908,-8.8914,-8.8892,-8.8832,-8.8829,-8.8827,-8.8825,0,-8.9138,-8.906,-8.9178,-8.9123,-8.9112,-8.9209,-8.9161,-8.9226,-8.9174,-8.9257,-8.927,-8.9189,-8.9242,-8.916,-8.9205,-8.9161,-8.9318,-8.9271,-8.9322,-8.9307,-8.9443,-8.943,-8.9905,-8.996,-8.951,-8.9514,-8.9518,0,-8.9356,-8.9443,-8.9397,-8.943,-8.9419,-8.9475,-8.9497,-8.9394,-8.9423,-8.9415,-8.9481,-8.9524,-8.9552,-8.9646,-8.9591,-8.9625,-8.9575,-8.974,-8.9579,-8.9605,-8.9573,-8.9568,-8.9575,-8.9771,-8.9777,-8.9781,-8.9785,0,-8.975,-8.9706,-8.9743,-8.9768,-8.9799,-8.9813,-8.9818,-8.9853,-8.9744,-8.9783,-8.9836,-8.9858,-8.9904,-8.9948,-8.9968,-8.995,-8.985,-8.9837,-8.9868,-8.9896,-8.992,-8.9906,-8.9407,-8.9825,-8.9821,-8.9818,-8.9816,-8.9814,-9.0047,-9.0116,-9.0094,-9.0139,-9.0132,-9.014,-9.0197,-9.0153,-9.0194,-9.0222,-9.0159,-9.0227,-9.0212,-9.0228,-9.0222,-9.0274,-9.0202,-9.0249,-9.026,-9.0272,-9.0292,-8.9916,-9.0278,-9.0277,-9.0275,-9.0274,-9.0274,0,-9.043,-9.0409,-9.0452,-9.0462,-9.0498,-9.0401,-9.0402,-9.0438,-9.0499,-9.0493,-9.0523,-9.0583,-9.0626,-9.0575,-9.0608,-9.0659,-9.0614,-9.0671,-9.0664,-9.0661,-9.0356,-9.0324,-9.0707,-9.0707,-9.0707,-9.0707,-9.0707,-9.0707,-9.0634,-9.0744,-9.0699,-9.0805,-9.0782,-9.0846,-9.0855,-9.0862,-9.0855,-9.0928,-9.0962,-9.0929,-9.0904,-9.0935,-9.0969,-9.0953,-9.097,-9.1043,-9.1011,-9.0726,-9.0683,-9.0643,-9.0611,-9.1048,-9.1049,-9.131,-9.1313,-9.1315]},{"header":{"parameterUnit":"m.s-1","parameterCategory":1,"la1":30.2991,"la2":30.254,"lo1":-89.0895,"lo2":-89.0444,"dy":0.0017,"dx":0.0017,"nx":28,"ny":28,"refTime":"2024-06-19T03:00:00:Z","depth":0,"parameterNumber":3,"parameterNumberName":"V-component_of_WINDS"},"data":[0,0,0,0,0,0,0,0,0,0,0,0,0,0,0,0,0,0,0,0,0,0,0,0,0,0,0,0,0,0,0,0,0,0,0,0,0,0,0,0,0,0,0,0,0,0,0,0,0,0,0,0,0,0,0,0,0,0,0.8839,0.8839,0,0.8906,0.8907,0.8907,0.8952,0.8952,0.8952,0.8953,0.9019,0.9021,0.9022,0,0,0,0,0,0,0,0,0,0,0,0,0,0.8748,0.8749,0.8839,0.8839,0.884,0.8906,0.8907,0.8908,0.8952,0.8952,0.8952,0.8953,0.9019,0.9021,0.9022,0,0,0,0,0,0,0,0,0,0,0,0,0,0.8798,0.875,0.8838,0.887,0.8874,0.8906,0.8907,0.8908,0.8952,0.8952,0.8952,0.8953,0.9018,0.902,0.9023,0.9028,0,0,0.9029,0.903,0,0,0,0,0,0,0,0,0.8795,0.8802,0.8865,0.8868,0.8872,0.8921,0.8899,0.8948,0.8951,0.8922,0.8953,0.8953,0.8986,0.8991,0.9003,0.9031,0.9034,0.903,0.9031,0.9032,0.9033,0,0,0,0,0,0,0,0.8792,0.8799,0.8865,0.8866,0.887,0.8881,0.8889,0.8909,0.8951,0.8924,0.8928,0.8935,0.8988,0.9,0.9004,0.9035,0.903,0.9032,0.9033,0.9034,0.9072,0.9072,0,0,0,0,0,0,0.8784,0.8796,0.8863,0.8867,0.8834,0.8882,0.8891,0.8905,0.895,0.8958,0.8935,0.8937,0.8996,0.9002,0.9007,0.9017,0.9032,0.9034,0.9035,0.9072,0.9072,0.9072,0,0,0,0,0,0,0.8781,0.8789,0.886,0.8833,0.8842,0.8883,0.8899,0.8906,0.8918,0.8958,0.8966,0.894,0.8997,0.9004,0.9023,0.902,0.9035,0.9037,0.9073,0.9072,0.9072,0.9036,0,0,0,0,0,0,0.8779,0.8788,0.879,0.8832,0.8844,0.8875,0.8898,0.8907,0.8922,0.8926,0.8965,0.8972,0.8998,0.9019,0.9025,0.9023,0.9039,0.9073,0.9073,0.9072,0.9037,0.9034,0.9031,0,0,0,0,0,0.8775,0.8777,0.879,0.8798,0.8847,0.8874,0.8881,0.8911,0.8921,0.8924,0.8951,0.897,0.9019,0.9021,0.9028,0.9026,0.9074,0.9073,0.9072,0.9039,0.9035,0.9031,0,0,0,0,0,0,0.8732,0.8783,0.8798,0.8813,0.8839,0.8882,0.8886,0.8906,0.8929,0.8931,0.8968,0.8976,0.8992,0.9011,0.9012,0.9035,0.9049,0.9049,0.9021,0.9018,0.9015,0.9009,0.9041,0,0,0,0,0,0.8724,0.8742,0.8786,0.8795,0.8807,0.8844,0.8857,0.8879,0.8907,0.8918,0.8946,0.8972,0.8994,0.9007,0.9029,0.9041,0.905,0.9044,0.904,0.9038,0.9038,0.9047,0.9045,0.9069,0.9069,0.9069,0,0,0.8708,0.8738,0.8747,0.8787,0.881,0.8828,0.8853,0.8871,0.8885,0.8921,0.894,0.8962,0.8994,0.901,0.9018,0.9026,0.9033,0.9037,0.9034,0.9036,0.9046,0.9043,0.9041,0.9069,0.9069,0.9069,0,0,0.8688,0.8713,0.8723,0.8746,0.8781,0.8806,0.8809,0.8849,0.8865,0.8886,0.8914,0.8931,0.8967,0.8989,0.9005,0.8996,0.9016,0.9002,0.8986,0.8994,0.8992,0.8991,0.8988,0.8987,0.9002,0.9002,0.9002,0,0.8663,0.8692,0.8726,0.8743,0.876,0.8795,0.8807,0.8827,0.8867,0.8878,0.8887,0.8934,0.8958,0.898,0.8978,0.899,0.8994,0.8997,0.899,0.8989,0.8988,0.8986,0.8985,0.9,0.9,0.9001,0.9001,0,0.8661,0.868,0.8685,0.8724,0.8742,0.8756,0.8792,0.8806,0.8826,0.8851,0.8872,0.8903,0.8932,0.8939,0.8958,0.8964,0.8969,0.8983,0.8998,0.8983,0.8982,0.8981,0.8998,0.8998,0.8999,0.8999,0,0,0.8613,0.8673,0.8674,0.8693,0.8735,0.8751,0.8767,0.8797,0.8809,0.8835,0.885,0.8881,0.8896,0.8914,0.8936,0.8944,0.8936,0.8958,0.8959,0.8953,0.8946,0.8934,0.8933,0.895,0.895,0.895,0.8943,0,0.86,0.8631,0.8663,0.8683,0.8702,0.8737,0.8751,0.8779,0.8802,0.8822,0.8848,0.887,0.8887,0.8899,0.8908,0.8935,0.8935,0.8936,0.8964,0.8964,0.8954,0.8932,0.8919,0.8911,0.8943,0.8943,0.8943,0,0.8588,0.8615,0.8637,0.8679,0.8688,0.87,0.8731,0.875,0.8782,0.8799,0.882,0.8845,0.8864,0.8878,0.8905,0.8905,0.8919,0.8934,0.8935,0.8938,0.8952,0.8935,0.891,0.8908,0.8942,0.8942,0.8942,0,0.8552,0.8593,0.8612,0.8627,0.8677,0.8685,0.8706,0.8739,0.8755,0.8783,0.8794,0.8822,0.8838,0.886,0.8892,0.8898,0.8916,0.8932,0.893,0.8929,0.8932,0.8931,0.8908,0.894,0.894,0.894,0.894,0,0.8533,0.8545,0.8597,0.8608,0.8624,0.8661,0.8675,0.8699,0.8729,0.8746,0.8777,0.8793,0.8834,0.8855,0.888,0.8899,0.8906,0.892,0.8926,0.8917,0.8915,0.8926,0.8927,0.894,0.894,0.894,0.894,0,0.8494,0.853,0.8553,0.8599,0.8611,0.862,0.8659,0.8672,0.8699,0.872,0.8727,0.8768,0.8794,0.8829,0.8865,0.8882,0.8898,0.8908,0.8887,0.8891,0.8888,0.8888,0.8871,0.8871,0.8903,0.8902,0.8902,0,0.848,0.849,0.8538,0.8553,0.8573,0.8595,0.8613,0.8651,0.8668,0.8707,0.8715,0.8744,0.8769,0.8809,0.8842,0.887,0.8881,0.8874,0.8885,0.8876,0.8881,0.888,0.8882,0.887,0.887,0.8869,0.8869,0,0.8451,0.8468,0.8493,0.8524,0.8545,0.8571,0.8598,0.8608,0.8652,0.867,0.8697,0.8717,0.8755,0.8783,0.8816,0.8838,0.8861,0.8865,0.8866,0.8857,0.8844,0.8851,0.8879,0.8865,0.8865,0.8866,0.8866,0.8866,0.8424,0.8436,0.8472,0.8499,0.8524,0.8549,0.8564,0.8594,0.8617,0.8652,0.8673,0.87,0.8734,0.8781,0.8802,0.8824,0.8833,0.8834,0.8835,0.8834,0.8832,0.8841,0.883,0.883,0.883,0.883,0.883,0,0.8397,0.8423,0.8447,0.8486,0.8507,0.8528,0.856,0.8577,0.86,0.863,0.8655,0.8687,0.8716,0.8752,0.8783,0.8793,0.8804,0.88,0.8799,0.8804,0.8822,0.8818,0.879,0.879,0.879,0.879,0.879,0.879,0.8385,0.8407,0.8429,0.8463,0.8489,0.8516,0.8533,0.8557,0.8582,0.8617,0.8641,0.8665,0.8698,0.8731,0.8758,0.8768,0.8778,0.8771,0.8784,0.8799,0.8803,0.8806,0.8803,0.8772,0.8772,0.8764,0.8764,0.8764]}]]